2021-033H (48255 NORAD) Tracking and Keplerian Element Data

This shows tracking and keplerian element data for the satellite.

Feedback or suggestion? Click here.




ElementValue
Catalog48255
Name2021-033H
Epoch Orbit297
Epoch Day136.80968047
Epoch Year2021
RAAN212.3296
Inclination97.3975
Eccentricity0.0010688
Argument of Perigee200.8296
Mean Anonmoly304.77
Mean Motion15.21421432
Decay Rate2.245E-05
L11 48255U 21033H 21136.80968047 .00002245 00000-0 10297-3 0 9993
L22 48255 97.3975 212.3296 0010688 200.8296 304.7700 15.21421432 2975

Live tracking and technical data element details for 2021-033H (NORAD 48255). 2021-033H can be tracked NOW for your location showing map with azimuth and elevation plus other details from your city location.

Track the satellite on the map from your city or location and see movement details for azimuth, elevation, latitude, longitude, range, height, and movement on the map or in text.







IsCatalogInMostPopularTable: catalog: 48255, numindb: 5
Update: records affected: 1



GetName: 48255 2021-033H

Hit Count: updated at: Mon, 17 May 2021 15:40:12 GMT